PAL1024 RPMR-RPLL

Flight info

Callsign PAL1024
Flight time 1h 34m
Altitude 38000
Route LATIA4R LATIA W6 LUMVI B473 LAIYA LAIYA7R
Aircraft A346/H-SDE2E3FGHIJ3J4J5M1RWXY/LB1D1

Departure

Time 2026-05-07 04:42
Airport General Santos International Airport (RPMR)

Arrival

Time 2026-05-07 06:17
Airport Ninoy Aquino International Airport (RPLL)
Time Latitude Longitude Altitude Speed Heading
2026-05-07 04:19 6.05645 125.09959 536 ft 0 kts 83°
2026-05-07 04:29 6.05644 125.09952 537 ft 2 kts 83°
2026-05-07 04:29 6.05643 125.09941 537 ft 0 kts 83°
2026-05-07 04:29 6.05641 125.09928 537 ft 2 kts 73°
2026-05-07 04:29 6.05634 125.09914 537 ft 2 kts 53°
2026-05-07 04:30 6.05624 125.09904 537 ft 2 kts 37°
2026-05-07 04:30 6.05611 125.09896 537 ft 2 kts 21°
2026-05-07 04:30 6.05597 125.09892 537 ft 2 kts
2026-05-07 04:30 6.05586 125.09892 537 ft 0 kts 354°
2026-05-07 04:31 6.05582 125.09893 537 ft 0 kts 353°
2026-05-07 04:35 6.05600 125.09891 537 ft 4 kts 353°
2026-05-07 04:35 6.05650 125.09885 537 ft 9 kts 353°
2026-05-07 04:35 6.05719 125.09877 537 ft 9 kts 354°
2026-05-07 04:36 6.05786 125.09869 537 ft 6 kts 353°
2026-05-07 04:36 6.05820 125.09860 537 ft 4 kts 326°
2026-05-07 04:36 6.05841 125.09821 537 ft 8 kts 276°
2026-05-07 04:36 6.05832 125.09753 537 ft 11 kts 261°
2026-05-07 04:37 6.05822 125.09669 537 ft 9 kts 264°
2026-05-07 04:37 6.05851 125.09616 537 ft 8 kts 330°
2026-05-07 04:37 6.05923 125.09602 537 ft 12 kts 352°
2026-05-07 04:37 6.06018 125.09590 537 ft 15 kts 353°
2026-05-07 04:38 6.06133 125.09576 537 ft 17 kts 352°
2026-05-07 04:38 6.06259 125.09559 537 ft 19 kts 353°
2026-05-07 04:38 6.06396 125.09542 537 ft 20 kts 353°
2026-05-07 04:38 6.06546 125.09525 537 ft 22 kts 354°
2026-05-07 04:39 6.06705 125.09508 537 ft 23 kts 353°
2026-05-07 04:39 6.06874 125.09489 537 ft 25 kts 353°
2026-05-07 04:39 6.07029 125.09470 537 ft 18 kts 353°
2026-05-07 04:39 6.07113 125.09467 537 ft 4 kts 32°
2026-05-07 04:40 6.07135 125.09506 537 ft 8 kts 70°
2026-05-07 04:40 6.07144 125.09576 537 ft 10 kts 86°
2026-05-07 04:40 6.07182 125.09615 537 ft 9 kts
2026-05-07 04:40 6.07250 125.09594 537 ft 9 kts 308°
2026-05-07 04:41 6.07261 125.09515 537 ft 13 kts 268°
2026-05-07 04:41 6.07243 125.09455 537 ft 5 kts 208°
2026-05-07 04:41 6.07185 125.09450 537 ft 10 kts 174°
2026-05-07 04:41 6.07171 125.09451 537 ft 0 kts 172°
2026-05-07 04:42 6.07146 125.09454 537 ft 20 kts 173°
2026-05-07 04:42 6.06658 125.09514 538 ft 118 kts 173°
2026-05-07 04:42 6.05553 125.09651 641 ft 187 kts 172°
2026-05-07 04:42 6.04248 125.09827 1477 ft 196 kts 172°
2026-05-07 04:43 6.02890 125.10031 2434 ft 201 kts 170°
2026-05-07 04:43 6.01546 125.10246 3279 ft 198 kts 172°
2026-05-07 04:43 6.00122 125.10390 3796 ft 214 kts 174°
2026-05-07 04:43 5.98560 125.10540 4268 ft 234 kts 173°
2026-05-07 04:44 5.96870 125.10789 4787 ft 253 kts 160°
2026-05-07 04:44 5.95371 125.11802 5329 ft 270 kts 127°
2026-05-07 04:44 5.94592 125.13498 6055 ft 277 kts 97°
2026-05-07 04:44 5.94762 125.15391 6949 ft 278 kts 68°
2026-05-07 04:45 5.95859 125.16961 7848 ft 280 kts 39°
2026-05-07 04:45 5.97613 125.17767 8711 ft 284 kts
2026-05-07 04:45 5.99613 125.17816 9557 ft 288 kts
2026-05-07 04:45 6.01612 125.17822 10355 ft 292 kts
2026-05-07 04:46 6.03711 125.17853 10886 ft 307 kts
2026-05-07 04:46 6.05918 125.17893 11289 ft 326 kts
2026-05-07 04:46 6.08268 125.17934 11666 ft 344 kts
2026-05-07 04:46 6.10735 125.17978 12025 ft 363 kts
2026-05-07 04:47 6.13321 125.18044 12400 ft 378 kts
2026-05-07 04:47 6.15967 125.18378 13029 ft 383 kts 12°
2026-05-07 04:47 6.18567 125.19036 13781 ft 385 kts 19°
2026-05-07 04:47 6.21085 125.19932 14485 ft 388 kts 22°
2026-05-07 04:48 6.23642 125.20902 15162 ft 392 kts 22°
2026-05-07 04:48 6.26187 125.21876 15813 ft 397 kts 22°
2026-05-07 04:48 6.28776 125.22864 16456 ft 401 kts 22°
2026-05-07 04:48 6.31426 125.23872 17099 ft 404 kts 22°
2026-05-07 04:49 6.34047 125.24867 17717 ft 408 kts 22°
2026-05-07 04:49 6.36748 125.25890 18345 ft 411 kts 22°
2026-05-07 04:49 6.39436 125.26904 18938 ft 415 kts 21°
2026-05-07 04:49 6.42264 125.27552 19445 ft 423 kts
2026-05-07 04:50 6.45210 125.27271 20011 ft 429 kts 347°
2026-05-07 04:50 6.47948 125.26124 20573 ft 435 kts 330°
2026-05-07 04:50 6.50390 125.24271 21140 ft 439 kts 322°
2026-05-07 04:50 6.52774 125.22328 21673 ft 443 kts 322°
2026-05-07 04:51 6.55189 125.20368 22186 ft 446 kts 322°
2026-05-07 04:51 6.57608 125.18418 22710 ft 449 kts 322°
2026-05-07 04:51 6.60066 125.16445 23229 ft 452 kts 322°
2026-05-07 04:51 6.62525 125.14478 23751 ft 455 kts 322°
2026-05-07 04:52 6.65018 125.12486 24269 ft 457 kts 322°
2026-05-07 04:52 6.67526 125.10483 24783 ft 460 kts 322°
2026-05-07 04:52 6.70031 125.08480 25286 ft 462 kts 322°
2026-05-07 04:52 6.72561 125.06458 25778 ft 465 kts 322°
2026-05-07 04:53 6.75104 125.04424 26252 ft 468 kts 322°
2026-05-07 04:53 6.77675 125.02365 26723 ft 470 kts 322°
2026-05-07 04:53 6.80223 125.00326 27178 ft 473 kts 322°
2026-05-07 04:53 6.82840 124.98231 27630 ft 476 kts 322°
2026-05-07 04:54 6.85428 124.96171 28056 ft 478 kts 324°
2026-05-07 04:54 6.88222 124.94294 28565 ft 478 kts 330°
2026-05-07 04:54 6.91159 124.92757 29242 ft 474 kts 336°
2026-05-07 04:54 6.94202 124.91553 29870 ft 472 kts 342°
2026-05-07 04:55 6.97362 124.90673 30428 ft 472 kts 347°
2026-05-07 04:55 7.00589 124.89978 30979 ft 472 kts 348°
2026-05-07 04:55 7.03838 124.89317 31544 ft 471 kts 348°
2026-05-07 04:55 7.07029 124.88674 32121 ft 471 kts 348°
2026-05-07 04:56 7.10244 124.88023 32722 ft 470 kts 348°
2026-05-07 04:56 7.13386 124.87381 33383 ft 469 kts 348°
2026-05-07 04:56 7.16581 124.86724 34080 ft 467 kts 348°
2026-05-07 04:56 7.19797 124.86061 34830 ft 464 kts 348°
2026-05-07 04:57 7.22983 124.85403 35569 ft 461 kts 348°
2026-05-07 04:57 7.26197 124.84740 36213 ft 459 kts 348°
2026-05-07 04:57 7.29412 124.84077 36689 ft 461 kts 347°
2026-05-07 04:57 7.32605 124.83418 37033 ft 464 kts 347°
2026-05-07 04:58 7.35858 124.82746 37366 ft 466 kts 347°
2026-05-07 04:58 7.39117 124.82073 37716 ft 468 kts 347°
2026-05-07 04:58 7.42372 124.81403 37871 ft 471 kts 347°
2026-05-07 04:58 7.45667 124.80722 37876 ft 471 kts 347°
2026-05-07 04:59 7.52212 124.79371 37894 ft 472 kts 347°
2026-05-07 04:59 7.58783 124.78013 37903 ft 472 kts 347°
2026-05-07 05:00 7.65370 124.76653 37905 ft 471 kts 347°
2026-05-07 05:00 7.71920 124.75300 37910 ft 471 kts 348°
2026-05-07 05:01 7.78540 124.73932 37926 ft 472 kts 348°
2026-05-07 05:01 7.85097 124.72577 37967 ft 473 kts 348°
2026-05-07 05:02 7.91706 124.71211 38009 ft 473 kts 348°
2026-05-07 05:02 7.98323 124.69842 38043 ft 474 kts 348°
2026-05-07 05:03 8.04887 124.68485 38053 ft 474 kts 348°
2026-05-07 05:03 8.11482 124.67123 38019 ft 473 kts 348°
2026-05-07 05:04 8.17480 124.65885 37982 ft 472 kts 348°
2026-05-07 05:04 8.24083 124.64519 37951 ft 473 kts 348°
2026-05-07 05:05 8.30676 124.63155 37920 ft 475 kts 348°
2026-05-07 05:05 8.37195 124.61562 37895 ft 475 kts 343°
2026-05-07 05:06 8.43457 124.59309 37867 ft 475 kts 337°
2026-05-07 05:06 8.49435 124.56395 37848 ft 475 kts 330°
2026-05-07 05:07 8.55201 124.53078 37830 ft 475 kts 330°
2026-05-07 05:07 8.61050 124.49683 37828 ft 475 kts 330°
2026-05-07 05:08 8.66895 124.46300 37825 ft 476 kts 330°
2026-05-07 05:08 8.72769 124.42908 37818 ft 475 kts 330°
2026-05-07 05:09 8.78572 124.39555 37813 ft 475 kts 330°
2026-05-07 05:09 8.84409 124.36182 37810 ft 475 kts 330°
2026-05-07 05:10 8.90287 124.32783 37808 ft 475 kts 330°
2026-05-07 05:10 8.96137 124.29398 37808 ft 475 kts 330°
2026-05-07 05:11 9.02004 124.26006 37810 ft 476 kts 330°
2026-05-07 05:11 9.07825 124.22631 37810 ft 476 kts 330°
2026-05-07 05:12 9.13671 124.19237 37809 ft 476 kts 330°
2026-05-07 05:12 9.19414 124.15905 37808 ft 476 kts 330°
2026-05-07 05:13 9.25140 124.12581 37804 ft 477 kts 330°
2026-05-07 05:13 9.31006 124.09172 37798 ft 477 kts 330°
2026-05-07 05:14 9.36849 124.05776 37799 ft 477 kts 330°
2026-05-07 05:14 9.42727 124.02378 37797 ft 478 kts 330°
2026-05-07 05:15 9.48610 123.98988 37800 ft 478 kts 330°
2026-05-07 05:15 9.54516 123.95563 37801 ft 479 kts 330°
2026-05-07 05:16 9.60380 123.92155 37803 ft 480 kts 330°
2026-05-07 05:16 9.66260 123.88738 37807 ft 480 kts 330°
2026-05-07 05:17 9.72174 123.85299 37812 ft 480 kts 330°
2026-05-07 05:17 9.78060 123.81876 37810 ft 481 kts 330°
2026-05-07 05:18 9.83972 123.78435 37810 ft 481 kts 330°
2026-05-07 05:18 9.89878 123.74997 37818 ft 481 kts 330°
2026-05-07 05:19 9.95803 123.71545 37828 ft 482 kts 330°
2026-05-07 05:19 10.01638 123.68143 37825 ft 481 kts 330°
2026-05-07 05:20 10.07593 123.64667 37821 ft 481 kts 330°
2026-05-07 05:20 10.13481 123.61228 37823 ft 481 kts 330°
2026-05-07 05:21 10.22287 123.56084 37823 ft 481 kts 329°
2026-05-07 05:22 10.28215 123.52618 37818 ft 481 kts 329°
2026-05-07 05:22 10.34133 123.49165 37809 ft 481 kts 329°
2026-05-07 05:23 10.40028 123.45727 37823 ft 480 kts 329°
2026-05-07 05:23 10.45944 123.42273 37836 ft 480 kts 329°
2026-05-07 05:24 10.51833 123.38832 37845 ft 480 kts 329°
2026-05-07 05:24 10.57724 123.35389 37860 ft 480 kts 329°
2026-05-07 05:25 10.63621 123.31941 37872 ft 479 kts 329°
2026-05-07 05:25 10.69474 123.28521 37879 ft 479 kts 329°
2026-05-07 05:26 10.75372 123.25073 37892 ft 479 kts 329°
2026-05-07 05:26 10.81253 123.21627 37880 ft 479 kts 329°
2026-05-07 05:27 10.87129 123.18181 37852 ft 478 kts 329°
2026-05-07 05:27 10.93035 123.14716 37830 ft 478 kts 329°
2026-05-07 05:28 10.98905 123.11269 37813 ft 477 kts 329°
2026-05-07 05:28 11.04742 123.07843 37817 ft 478 kts 329°
2026-05-07 05:29 11.10610 123.04398 37826 ft 478 kts 329°
2026-05-07 05:29 11.16525 123.00922 37829 ft 478 kts 329°
2026-05-07 05:30 11.22389 122.97475 37830 ft 478 kts 329°
2026-05-07 05:30 11.28256 122.94023 37832 ft 478 kts 329°
2026-05-07 05:31 11.34121 122.90571 37831 ft 478 kts 329°
2026-05-07 05:31 11.39992 122.87116 37824 ft 477 kts 329°
2026-05-07 05:32 11.45820 122.83683 37821 ft 477 kts 329°
2026-05-07 05:32 11.51659 122.80242 37821 ft 477 kts 329°
2026-05-07 05:33 11.57494 122.76801 37821 ft 477 kts 329°
2026-05-07 05:33 11.63167 122.73185 37824 ft 477 kts 326°
2026-05-07 05:34 11.68748 122.69427 37825 ft 477 kts 325°
2026-05-07 05:34 11.74362 122.65640 37827 ft 476 kts 325°
2026-05-07 05:35 11.79994 122.61844 37828 ft 476 kts 325°
2026-05-07 05:35 11.85649 122.58031 37830 ft 476 kts 325°
2026-05-07 05:36 11.91234 122.54265 37831 ft 476 kts 325°
2026-05-07 05:36 11.96887 122.50452 37830 ft 477 kts 325°
2026-05-07 05:37 12.02529 122.46643 37828 ft 477 kts 325°
2026-05-07 05:37 12.08151 122.42847 37827 ft 476 kts 325°
2026-05-07 05:38 12.13772 122.39049 37826 ft 476 kts 325°
2026-05-07 05:38 12.19374 122.35261 37827 ft 475 kts 325°
2026-05-07 05:39 12.25010 122.31450 37826 ft 475 kts 324°
2026-05-07 05:39 12.30639 122.27640 37827 ft 474 kts 324°
2026-05-07 05:40 12.36193 122.23878 37829 ft 474 kts 324°
2026-05-07 05:40 12.41749 122.20054 37833 ft 474 kts 323°
2026-05-07 05:41 12.47324 122.16175 37835 ft 474 kts 323°
2026-05-07 05:41 12.52863 122.12322 37835 ft 473 kts 323°
2026-05-07 05:42 12.58417 122.08459 37837 ft 473 kts 324°
2026-05-07 05:42 12.63949 122.04611 37839 ft 472 kts 323°
2026-05-07 05:43 12.69484 122.00761 37841 ft 472 kts 323°
2026-05-07 05:43 12.75026 121.96904 37843 ft 472 kts 323°
2026-05-07 05:44 12.80559 121.93048 37844 ft 472 kts 323°
2026-05-07 05:44 12.86057 121.89216 37846 ft 472 kts 323°
2026-05-07 05:45 12.91520 121.85408 37844 ft 472 kts 323°
2026-05-07 05:45 12.96954 121.81618 37845 ft 471 kts 323°
2026-05-07 05:45 12.99693 121.79707 37583 ft 472 kts 323°
2026-05-07 05:46 13.02419 121.77802 36692 ft 477 kts 323°
2026-05-07 05:46 13.05186 121.75867 35808 ft 479 kts 323°
2026-05-07 05:46 13.07944 121.73940 35228 ft 475 kts 323°
2026-05-07 05:46 13.10578 121.72100 34654 ft 472 kts 324°
2026-05-07 05:47 13.13339 121.70170 34018 ft 471 kts 324°
2026-05-07 05:47 13.14177 121.69585 33820 ft 470 kts 324°
2026-05-07 05:47 13.15990 121.68317 33392 ft 470 kts 324°
2026-05-07 05:48 13.18699 121.66423 32744 ft 469 kts 324°
2026-05-07 05:48 13.21388 121.64541 32150 ft 469 kts 324°
2026-05-07 05:48 13.24122 121.62626 31523 ft 469 kts 324°
2026-05-07 05:48 13.26837 121.60725 30866 ft 471 kts 325°
2026-05-07 05:49 13.29556 121.58820 30190 ft 472 kts 325°
2026-05-07 05:49 13.32262 121.56924 29504 ft 473 kts 325°
2026-05-07 05:49 13.34974 121.55023 28796 ft 475 kts 326°
2026-05-07 05:49 13.37712 121.53105 28220 ft 471 kts 326°
2026-05-07 05:50 13.40377 121.51240 28120 ft 457 kts 326°
2026-05-07 05:50 13.42965 121.49426 28029 ft 443 kts 326°
2026-05-07 05:50 13.45475 121.47668 27908 ft 430 kts 326°
2026-05-07 05:50 13.47918 121.45954 27696 ft 411 kts 326°
2026-05-07 05:51 13.50202 121.44351 27637 ft 388 kts 326°
2026-05-07 05:51 13.52419 121.42797 27579 ft 385 kts 326°
2026-05-07 05:51 13.54649 121.41233 27466 ft 383 kts 326°
2026-05-07 05:51 13.56833 121.39702 27365 ft 380 kts 326°
2026-05-07 05:52 13.59022 121.38123 27077 ft 380 kts 325°
2026-05-07 05:52 13.61138 121.36545 26684 ft 378 kts 324°
2026-05-07 05:52 13.63283 121.34937 26310 ft 375 kts 324°
2026-05-07 05:52 13.65363 121.33378 25952 ft 372 kts 324°
2026-05-07 05:53 13.67475 121.31798 25590 ft 369 kts 325°
2026-05-07 05:53 13.69553 121.30246 25237 ft 366 kts 325°
2026-05-07 05:53 13.71602 121.28717 24890 ft 363 kts 325°
2026-05-07 05:53 13.73622 121.27212 24547 ft 360 kts 325°
2026-05-07 05:54 13.75645 121.25703 24202 ft 357 kts 325°
2026-05-07 05:54 13.77659 121.24201 23712 ft 363 kts 325°
2026-05-07 05:54 13.79727 121.22658 22837 ft 374 kts 325°
2026-05-07 05:54 13.81868 121.21061 21963 ft 385 kts 325°
2026-05-07 05:55 13.84056 121.19428 21126 ft 395 kts 325°
2026-05-07 05:55 13.86300 121.17752 20293 ft 403 kts 325°
2026-05-07 05:55 13.88608 121.16029 19416 ft 412 kts 325°
2026-05-07 05:55 13.90955 121.14275 18459 ft 421 kts 325°
2026-05-07 05:56 13.93320 121.12508 17501 ft 429 kts 325°
2026-05-07 05:56 13.95749 121.10693 16661 ft 432 kts 325°
2026-05-07 05:56 13.98177 121.08878 16075 ft 428 kts 325°
2026-05-07 05:56 14.00570 121.07089 15481 ft 424 kts 325°
2026-05-07 05:57 14.02966 121.05297 14918 ft 421 kts 325°
2026-05-07 05:57 14.05335 121.03527 14400 ft 416 kts 325°
2026-05-07 05:57 14.07628 121.01811 14202 ft 403 kts 325°
2026-05-07 05:57 14.09886 121.00120 13895 ft 389 kts 325°
2026-05-07 05:58 14.12034 120.98511 13233 ft 372 kts 325°
2026-05-07 05:58 14.14002 120.97036 12785 ft 354 kts 325°
2026-05-07 05:58 14.15935 120.95588 12414 ft 336 kts 325°
2026-05-07 05:58 14.17832 120.94266 12148 ft 318 kts 330°
2026-05-07 05:59 14.19721 120.93126 11989 ft 309 kts 332°
2026-05-07 05:59 14.21570 120.92037 11776 ft 303 kts 332°
2026-05-07 05:59 14.23421 120.90950 11531 ft 296 kts 332°
2026-05-07 05:59 14.25119 120.89854 11247 ft 283 kts 318°
2026-05-07 06:00 14.26155 120.88202 11034 ft 276 kts 285°
2026-05-07 06:00 14.26222 120.86259 10788 ft 271 kts 255°
2026-05-07 06:00 14.25450 120.84507 10549 ft 265 kts 238°
2026-05-07 06:00 14.24500 120.82917 10340 ft 260 kts 238°
2026-05-07 06:01 14.23565 120.81326 10147 ft 258 kts 238°
2026-05-07 06:01 14.22650 120.79729 9986 ft 258 kts 239°
2026-05-07 06:01 14.21749 120.78127 9836 ft 257 kts 239°
2026-05-07 06:01 14.20868 120.76546 9742 ft 257 kts 239°
2026-05-07 06:02 14.19970 120.74945 9641 ft 257 kts 239°
2026-05-07 06:02 14.19065 120.73347 9523 ft 256 kts 239°
2026-05-07 06:02 14.18166 120.71764 9228 ft 260 kts 239°
2026-05-07 06:02 14.17241 120.70132 8769 ft 267 kts 239°
2026-05-07 06:03 14.16284 120.68442 8305 ft 273 kts 239°
2026-05-07 06:03 14.15328 120.66754 7842 ft 278 kts 239°
2026-05-07 06:03 14.14345 120.65018 7415 ft 283 kts 239°
2026-05-07 06:03 14.13351 120.63264 7134 ft 279 kts 239°
2026-05-07 06:04 14.12396 120.61578 6983 ft 269 kts 239°
2026-05-07 06:04 14.11480 120.59938 6865 ft 260 kts 243°
2026-05-07 06:04 14.11102 120.58168 6691 ft 251 kts 278°
2026-05-07 06:04 14.11703 120.56542 6574 ft 244 kts 310°
2026-05-07 06:05 14.13004 120.55431 6474 ft 240 kts 333°
2026-05-07 06:05 14.14458 120.54622 6381 ft 239 kts 334°
2026-05-07 06:05 14.15944 120.53800 6256 ft 239 kts 334°
2026-05-07 06:05 14.17407 120.52966 6161 ft 239 kts 334°
2026-05-07 06:06 14.18851 120.52125 6063 ft 239 kts 333°
2026-05-07 06:06 14.20345 120.51363 5925 ft 235 kts 351°
2026-05-07 06:06 14.21931 120.51410 5794 ft 227 kts 23°
2026-05-07 06:06 14.23222 120.52274 5676 ft 221 kts 52°
2026-05-07 06:07 14.24049 120.53623 5556 ft 220 kts 62°
2026-05-07 06:07 14.24793 120.54997 5455 ft 219 kts 62°
2026-05-07 06:07 14.25536 120.56359 5344 ft 219 kts 62°
2026-05-07 06:07 14.26289 120.57727 5232 ft 219 kts 61°
2026-05-07 06:08 14.27043 120.59091 5112 ft 219 kts 61°
2026-05-07 06:08 14.27804 120.60465 4976 ft 219 kts 61°
2026-05-07 06:08 14.28554 120.61815 4934 ft 218 kts 61°
2026-05-07 06:08 14.29317 120.63175 4936 ft 219 kts 61°
2026-05-07 06:09 14.30096 120.64542 4918 ft 218 kts 61°
2026-05-07 06:09 14.30855 120.65881 4907 ft 219 kts 61°
2026-05-07 06:09 14.31621 120.67241 4923 ft 218 kts 61°
2026-05-07 06:09 14.32387 120.68613 4915 ft 218 kts 61°
2026-05-07 06:10 14.33137 120.69962 4881 ft 218 kts 61°
2026-05-07 06:10 14.33895 120.71330 4764 ft 217 kts 61°
2026-05-07 06:10 14.34634 120.72669 4605 ft 217 kts 61°
2026-05-07 06:10 14.35384 120.74026 4401 ft 216 kts 61°
2026-05-07 06:11 14.36128 120.75375 4187 ft 216 kts 62°
2026-05-07 06:11 14.36871 120.76720 3983 ft 215 kts 61°
2026-05-07 06:11 14.37613 120.78065 3770 ft 215 kts 62°
2026-05-07 06:11 14.38348 120.79394 3558 ft 215 kts 62°
2026-05-07 06:12 14.39098 120.80749 3351 ft 214 kts 62°
2026-05-07 06:12 14.39829 120.82069 3206 ft 207 kts 62°
2026-05-07 06:12 14.40527 120.83328 3227 ft 203 kts 62°
2026-05-07 06:12 14.41232 120.84602 3184 ft 203 kts 62°
2026-05-07 06:13 14.41939 120.85877 2958 ft 203 kts 62°
2026-05-07 06:13 14.42637 120.87138 2701 ft 202 kts 62°
2026-05-07 06:13 14.43326 120.88381 2463 ft 201 kts 62°
2026-05-07 06:13 14.44018 120.89628 2234 ft 193 kts 62°
2026-05-07 06:14 14.44665 120.90794 1981 ft 181 kts 62°
2026-05-07 06:14 14.45274 120.91888 1743 ft 170 kts 63°
2026-05-07 06:14 14.45841 120.92908 1533 ft 158 kts 63°
2026-05-07 06:14 14.46377 120.93875 1354 ft 153 kts 62°
2026-05-07 06:15 14.46906 120.94825 1174 ft 152 kts 65°
2026-05-07 06:15 14.47434 120.95784 998 ft 152 kts 62°
2026-05-07 06:15 14.47961 120.96729 815 ft 152 kts 63°
2026-05-07 06:15 14.48487 120.97677 619 ft 151 kts 63°
2026-05-07 06:16 14.49013 120.98618 427 ft 151 kts 63°
2026-05-07 06:16 14.49528 120.99547 223 ft 150 kts 62°
2026-05-07 06:16 14.50050 121.00487 105 ft 148 kts 62°
2026-05-07 06:16 14.50460 121.01236 90 ft 87 kts 58°
2026-05-07 06:17 14.50668 121.01603 90 ft 45 kts 61°
2026-05-07 06:17 14.50811 121.01868 90 ft 38 kts 61°
2026-05-07 06:17 14.50940 121.02095 90 ft 29 kts 59°
2026-05-07 06:17 14.51070 121.02241 90 ft 23 kts 40°
2026-05-07 06:18 14.51148 121.02297 90 ft 8 kts
2026-05-07 06:18 14.51179 121.02261 90 ft 9 kts 265°
2026-05-07 06:18 14.51152 121.02190 90 ft 12 kts 241°
2026-05-07 06:18 14.51102 121.02100 90 ft 15 kts 240°
2026-05-07 06:19 14.51043 121.01994 90 ft 18 kts 240°
2026-05-07 06:19 14.50977 121.01874 90 ft 20 kts 240°
2026-05-07 06:19 14.50902 121.01737 90 ft 22 kts 240°
2026-05-07 06:19 14.50818 121.01588 90 ft 25 kts 239°
2026-05-07 06:20 14.50727 121.01427 90 ft 26 kts 240°
2026-05-07 06:20 14.50636 121.01260 90 ft 27 kts 240°
2026-05-07 06:20 14.50537 121.01082 90 ft 29 kts 240°
2026-05-07 06:20 14.50452 121.00929 90 ft 17 kts 240°
2026-05-07 06:21 14.50404 121.00841 90 ft 13 kts 240°
2026-05-07 06:21 14.50367 121.00755 90 ft 7 kts 275°
2026-05-07 06:21 14.50383 121.00707 90 ft 8 kts 283°
2026-05-07 06:21 14.50395 121.00672 90 ft 4 kts 310°
2026-05-07 06:22 14.50426 121.00659 90 ft 4 kts 351°
2026-05-07 06:22 14.50454 121.00657 90 ft 1 kts
2026-05-07 06:22 14.50460 121.00658 90 ft 0 kts